Location: Dumpton Point
(51.3500°N, 1.4433°E)
Time: 14:47:50
(UTC+00:00)

X-37B - Visible Passes

Search period start: 23 June 2021 00:00
Search period end: 03 July 2021 00:00
Orbit: 386 x 389 km, 45.0° (Epoch: 10 June)

Date Brightness Start Highest point End Pass type
(mag) Time Alt. Az. Time Alt. Az. Time Alt. Az.
23 Jun 2.0 22:07:51 10° SW 22:10:08 20° SSE 22:10:08 20° SSE visible
24 Jun 2.3 21:10:05 10° SSW 21:12:07 16° SSE 21:14:08 10° ESE visible
24 Jun 1.9 22:45:27 10° SW 22:47:29 24° SSW 22:47:29 24° SSW visible
25 Jun 1.8 21:47:20 10° SW 21:49:58 24° S 21:51:53 14° SE visible
25 Jun 2.8 23:23:28 10° WSW 23:24:10 14° SW 23:24:10 14° SW visible
26 Jun 1.7 22:25:11 10° WSW 22:27:53 25° S 22:28:18 25° S visible
27 Jun 1.7 21:26:58 10° SW 21:29:41 26° S 21:32:17 11° ESE visible
27 Jun 2.6 23:03:24 10° WSW 23:04:33 16° SW 23:04:33 16° SW visible
28 Jun 1.9 22:05:00 10° WSW 22:07:36 23° S 22:08:29 20° SSE visible
29 Jun 1.8 21:06:42 10° WSW 21:09:25 25° S 21:12:07 10° SE visible
29 Jun 2.7 22:43:31 10° WSW 22:44:39 14° SW 22:44:39 14° SW visible
30 Jun 2.2 21:44:56 10° WSW 21:47:18 19° SSW 21:48:33 16° SSE visible
01 Jul 3.0 22:24:19 10° SW 22:24:43 10° SSW 22:24:43 10° SSW visible
02 Jul 2.7 21:25:03 10° WSW 21:26:57 15° SSW 21:28:38 11° SSE visible
